Voltar ao catálogo

FUSION 1

AtivoComunicaçõesSSO
NORAD 62674·PAYLOAD·🇯🇵 Japan
Este nome de satélite ainda não foi confirmado por fontes oficiais.

Lançado Jan 14, 2025 de Vandenberg Space Force Base

Loading…

Próximas Passagens (próximas 24 horas)

TLE

AtualizadoSource: Space-Track

Época: Sep 13, 2026, 16:20 UTC

1 62674U 25009BT  26256.68116425  .00009316  00000-0  30556-3 0  9996
2 62674  97.4009 338.9513 0004494  16.9880 343.1512 15.31826535150106

Acompanhe FUSION 1 em tempo real com AllMySat

Download on the App Store